This demonstration page uses our WeatherBlox Daily Observations layout. Learn more.

Left ArrowRight Arrow

Hourly Observations for August 27, 2021

Temp ( °F °C ) Dew Point ( °F °C ) Humidity (%) Winds ( mph kmh ) Pressure ( in mb ) Visibility ( mi km ) Precip ( " mm )
12:54 am 00:54 Clear 81 27.2 68 20 65 65 S 14 22 29.85 1011 10 16 0.00 0.00
1:54 am 01:54 Clear 81 27.2 68 20 65 65 S 10 17 29.87 1011 10 16 0.00 0.00
2:54 am 02:54 Clear 80 26.7 67 19.4 64 64 SSE 16 26 29.83 1010 10 16 0.00 0.00
3:54 am 03:54 Clear 79 26.1 67 19.4 67 67 SSW 12 19 29.84 1011 10 16 0.00 0.00
4:54 am 04:54 Clear 80 26.7 67 19.4 64 64 S 9 15 29.83 1010 10 16 0.00 0.00
5:54 am 05:54 Clear 79 26.1 67 19.4 67 67 S 10 17 29.82 1010 10 16 0.00 0.00
6:54 am 06:54 Sunny 79 26.1 67 19.4 67 67 S 14 22 29.81 1010 10 16 0.00 0.00
7:54 am 07:54 Sunny 80 26.7 68 20 67 67 S 15 24 29.81 1010 10 16 0.00 0.00
8:54 am 08:54 Sunny 83 28.3 69 20.6 63 63 SSW 14 22 29.81 1009 10 16 0.00 0.00
9:54 am 09:54 Sunny 88 31.1 69 20.6 54 54 SSW 18 30 29.79 1009 10 16 0.00 0.00
10:54 am 10:54 Sunny 90 32.2 69 20.6 50 50 SW 21 33 29.80 1009 10 16 0.00 0.00
11:54 am 11:54 Sunny 93 33.9 68 20 44 44 WSW 20 31 29.82 1010 10 16 0.00 0.00
12:54 pm 12:54 Sunny 95 35 69 20.6 43 43 SSW 17 28 29.80 1009 10 16 0.00 0.00
1:54 pm 13:54 Sunny 97 36.1 69 20.6 40 40 SSW 18 30 29.78 1008 10 16 0.00 0.00
2:54 pm 14:54 Partly Cloudy 98 36.7 70 21.1 40 40 S 15 24 29.77 1008 10 16 0.00 0.00
3:54 pm 15:54 Partly Cloudy 100 37.8 68 20 35 35 SSW 22 35 29.75 1008 10 16 0.00 0.00
4:54 pm 16:54 Partly Cloudy 97 36.1 69 20.6 40 40 S 23 37 29.74 1007 10 16 0.00 0.00
5:54 pm 17:54 Mostly Sunny 92 33.3 67 19.4 44 44 SSW 32 52 29.77 1008 10 16 0.00 0.00
6:54 pm 18:54 Sunny 88 31.1 68 20 52 52 SSW 17 28 29.79 1009 10 16 0.00 0.00
7:54 pm 19:54 Sunny 84 28.9 68 20 59 59 S 9 15 29.81 1009 10 16 0.00 0.00
8:54 pm 20:54 Partly Cloudy 81 27.2 70 21.1 69 69 S 9 15 29.82 1010 10 16 0.00 0.00
9:54 pm 21:54 Clear 80 26.7 70 21.1 71 71 S 8 13 29.81 1010 10 16 0.00 0.00
10:54 pm 22:54 Clear 78 25.6 70 21.1 76 76 S 5 7 29.82 1010 10 16 0.00 0.00
11:54 pm 23:54 Clear 79 26.1 69 20.6 72 72 SSE 10 17 29.83 1010 10 16 0.00 0.00

Powered by AerisWeather